Regional Weather Roundup
Issued by NWS Columbia, SC

Home | Current Version | Previous Version | Text Only | Print | Product List | Glossary On
Versions: 1 2 3 4 5 6 7 8 9 10 11 12 13 14 15 16 17 18 19 20 21 22 23 24 25 26 27 28 29 30 31 32 33 34 35 36 37 38 39 40 41 42 43 44 45 46 47 48 49 50
000
ASUS42 KCAE 151810
RWRCAE
REGIONAL WEATHER ROUNDUP
NATIONAL WEATHER SERVICE COLUMBIA SC
100 PM EST FRI DEC 15 2017

NOTE: "FAIR" INDICATES FEW OR NO CLOUDS BELOW 12,000 FEET WITH NO
SIGNIFICANT WEATHER AND/OR OBSTRUCTIONS TO VISIBILITY.

NOT ALL STATIONS ARE QUALITY CONTROLLED BY THE NATIONAL
WEATHER SERVICE. USE DATA WITH CAUTION...ESPECIALLY
DEWPOINT OBSERVATIONS.

SCZ001>056-GAZ040-063>065-077-151900-
...UPSTATE SOUTH CAROLINA...

CITY           SKY/WX    TMP DP  RH WIND       PRES   REMARKS
ANDERSON       CLOUDY    51  30  44 W13       29.95
6HR MIN TEMP:  34; 6HR MAX TEMP:  51;

LIBERTY        PTCLDY    47  32  54 W6        29.94F
6HR MIN TEMP:  29; 6HR MAX TEMP:  48;

SPARTANBURG    CLOUDY    45  27  49 W3        29.96R
CLEMSON        CLOUDY    49  32  52 W9        29.95F
6HR MIN TEMP:  36; 6HR MAX TEMP:  49;

GREENVILLE     MOSUNNY   48  28  46 W8        29.95F
6HR MIN TEMP:  37; 6HR MAX TEMP:  49;

GREENWOOD      PTSUNNY   52  33  48 SW14      29.97F
6HR MIN TEMP:  33; 6HR MAX TEMP:  52;

GREER          MOSUNNY   47  26  44 SW6       29.95F
6HR MIN TEMP:  34; 6HR MAX TEMP:  47;

ROCK HILL      CLOUDY    47  29  49 NW3       29.95F
6HR MIN TEMP:  33; 6HR MAX TEMP:  47;

CHESTER        PTCLDY    46  28  49 W3        29.96F
LAURENS        PTCLDY    50  32  50 SW8       29.95F


...CENTRAL SOUTH CAROLINA...

CITY           SKY/WX    TMP DP  RH WIND       PRES   REMARKS
COLUMBIA APT   MOSUNNY   61  37  41 W10       29.96F
6HR MIN TEMP:  36; 6HR MAX TEMP:  62;

COLUMBIA OWENS SUNNY     58  33  39 W6        29.97F
6HR MIN TEMP:  37; 6HR MAX TEMP:  58;

MCENTIRE ANGB  SUNNY     59  36  43 W9        29.96F
6HR MIN TEMP:  34; 6HR MAX TEMP:  59; 6HR PCP: TRACE;

ORANGEBURG     CLOUDY    56  38  50 W7        29.97F
6HR MIN TEMP:  39; 6HR MAX TEMP:  56;

SUMTER SHAW    MOSUNNY   58  33  39 W14       29.93F
6HR MIN TEMP:  37; 6HR MAX TEMP:  59;

NEWBERRY       CLOUDY    52  32  46 W7        29.99F
AIKEN          FAIR      54  34  47 W9        30.02S
BARNWELL         N/A     57  39  51 W9        29.99F
MANNING        FAIR      55   5  13 MISG      29.96F
CAMDEN         FAIR      55  34  44 SW12      29.96F
LANCASTER      PTCLDY    48  28  46 W6        29.96S
WINNSBORO      PTCLDY    54  34  47 SW9       29.96S


...EASTERN AND COASTAL SOUTH CAROLINA...

CITY           SKY/WX    TMP DP  RH WIND       PRES   REMARKS
MYRTLE BEACH   CLOUDY    58  40  51 SW6       29.95F
6HR MIN TEMP:  44; 6HR MAX TEMP:  58;

N MYRTLE BCH   PTSUNNY   57  42  57 SW6       29.93F
6HR MIN TEMP:  42; 6HR MAX TEMP:  57;

CONWAY         FAIR      55  39  54 SW8       29.94F
MARION         FAIR      55  36  47 SW7       29.94F
HARTSVILLE     FAIR      54  34  47 SW7       29.94F
FLORENCE       SUNNY     58  35  42 W14       29.94F
6HR MIN TEMP:  35; 6HR MAX TEMP:  58;

DARLINGTON     SUNNY     55  36  48 W10       29.96F
6HR MIN TEMP:  31; 6HR MAX TEMP:  55;

CHARLESTON APT CLOUDY    63  38  39 W13       29.96F
6HR MIN TEMP:  41; 6HR MAX TEMP:  65;

MOUNT PLEASANT FAIR      64  39  39 SW16      29.96F
WALTERBORO     CLOUDY    59  39  47 W12       29.98F
BEAUFORT       CLOUDY    61  42  49 W12       29.99F
6HR MIN TEMP:  43; 6HR MAX TEMP:  64;



...EASTERN GEORGIA...

CITY           SKY/WX    TMP DP  RH WIND       PRES   REMARKS
AUGUSTA BUSH F MOSUNNY   57  36  45 W9        30.00F
6HR MIN TEMP:  35; 6HR MAX TEMP:  57;

AUGUSTA DANIEL CLOUDY    57  35  43 SW8       30.00S
6HR MIN TEMP:  44; 6HR MAX TEMP:  57;

THOMSON        MOSUNNY   54  34  46 NW12G20   30.06S
6HR MIN TEMP:  34; 6HR MAX TEMP:  55;

WASHINGTON     FAIR      50  32  50 W10G17    29.99F
CLAXTON        FAIR      58  44  59 SW5       30.02F
6HR MIN TEMP:  38; 6HR MAX TEMP:  58;

SYLVANIA       PTCLDY    58  43  58 W7        30.02F
6HR MIN TEMP:  41; 6HR MAX TEMP:  58;

STATESBORO     CLOUDY    58  38  46 W8        30.01F
6HR MIN TEMP:  40; 6HR MAX TEMP:  59;

SAVANNAH       CLOUDY    62  41  46 W9        30.01F
6HR MIN TEMP:  43; 6HR MAX TEMP:  63;



...SOUTHERN NORTH CAROLINA...

CITY           SKY/WX    TMP DP  RH WIND       PRES   REMARKS
CHARLOTTE      CLOUDY    46  28  49 NW7       29.95F
6HR MIN TEMP:  31; 6HR MAX TEMP:  46;

MONROE         MOSUNNY   48  30  49 W5        29.94F
6HR MIN TEMP:  34; 6HR MAX TEMP:  48;

WADESBORO      PTCLDY    48  32  54 SW3       29.96S
ASHEVILLE      CLOUDY    37  26  64 N16       29.95R WCI  28
6HR MIN TEMP:  30; 6HR MAX TEMP:  38;


$$



USA.gov is the U.S. government's official web portal to all federal, state and local government web resources and services.